Portada
METAR-TAF:

METAR-TAF

Aeropuertos :

St. Charles County Airport (Smart Field)

Saint Charles, Misuri, Estados Unidos

latitud: 38-55-50N, longitud: 090-25-57W, altitud: 133 m

Observación

El informe se hizo hace 44 minutos, a las 22:54 UTC
Viento 8 kt del norte
Temperatura 28°C
Humedad 55%
Presión 1017 hPa
Visibilidad: 9.7 km
Cielo despejado
calima

METAR: KSET 012254Z AUTO 01008KT 6SM HZ CLR 28/18 A3003 RMK AO2 SLP165 T02780178

Hora: 18:38 (23:38 UTC)


TAF: falta

Observaciones y pronósticos meteorológicos de más de 4000 aeropuertos (mensajes METAR y TAF).

Los puntos amarillos y rojos representan las estaciones disponibles.

Ponga el ratón en el punto deseado para ver el nombre de la estación.

Haga clic para ver las observaciones y los pronósticos meteorológicos.

Para cambiar el mapa : haga clic en los botones verdes con una cruz de color negro para hacer un zoom, en el botón verde con un guión para alejar o en las flechas verdes para mapas adyacentes.


METAR-TAF: